Wind_Speed
4 4 3 3 2 2 3 2 1 1 1 2 2 3 4 4 4 5 5 6 6 6 6 5 5 4 3 3 3 2 2 3 3 3 3 3 4 4 5 6 7 7 8 9 9 10 10 10 10
5 4 4 4 3 3 5 4 3 2 2 2 3 4 4 4 5 5 5 6 6 6 6 5 5 4 3 3 4 3 3 3 3 3 4 4 5 5 6 7 8 9 10 10 11 11 11 11 12
6 5 5 4 4 5 6 5 4 3 2 3 4 4 4 5 5 5 6 5 5 5 5 5 5 5 5 5 5 4 3 4 4 5 6 6 7 7 8 9 10 11 11 12 12 12 12 13 13
7 6 6 5 5 6 6 5 4 3 3 3 4 5 5 5 5 5 5 5 5 6 6 6 6 6 6 6 6 5 5 5 6 6 7 8 9 9 10 11 11 12 12 13 13 14 14 14 15
7 7 5 6 6 6 6 5 4 3 3 3 4 5 5 6 6 5 5 5 6 6 7 7 8 8 7 8 7 6 7 7 8 8 9 10 11 11 12 12 13 13 13 14 15 15 15 15 16
7 7 6 7 6 7 6 5 4 4 3 4 5 5 6 6 6 6 6 6 6 7 7 8 8 9 9 8 7 8 8 9 10 10 11 12 12 13 13 14 14 15 15 15 16 17 17 18 17
7 8 8 8 7 7 7 6 5 5 4 5 5 6 7 7 7 6 6 6 7 8 9 9 10 10 10 9 8 9 10 11 12 12 13 14 14 14 15 16 16 16 16 17 18 18 19 20 20
8 7 7 7 8 8 8 6 6 5 6 5 5 6 6 6 6 6 7 8 9 10 10 10 11 11 11 10 10 11 11 12 13 14 15 15 16 16 16 17 18 18 18 18 19 20 20 20 21
9 8 9 9 8 9 8 7 7 5 5 5 6 6 6 6 6 7 8 9 10 11 11 12 11 11 12 12 11 12 13 14 15 15 16 17 17 17 18 19 19 19 19 20 20 20 20 21 21
10 10 10 10 10 9 9 8 7 6 6 6 7 7 7 7 7 8 9 10 11 11 12 11 12 13 14 14 14 14 15 16 16 16 17 18 18 18 19 19 20 20 20 21 21 21 21 22 22
11 11 11 11 10 9 9 8 8 7 7 7 8 8 8 8 9 9 10 11 11 12 13 13 14 15 16 17 17 17 17 18 18 18 19 19 19 20 20 21 21 22 22 22 22 22 23 23 23
11 12 11 11 11 9 9 8 8 8 8 8 9 9 10 11 11 11 12 13 13 14 14 15 15 16 18 18 19 19 19 20 20 21 21 21 21 22 22 23 23 23 23 24 24 24 25 25 24
11 11 11 11 11 10 9 8 8 8 9 9 10 11 12 13 13 13 14 14 15 15 16 17 18 18 19 19 20 19 20 21 21 22 23 23 23 24 24 24 24 25 25 25 26 26 26 26 26
10 10 9 10 10 9 9 8 9 9 10 11 12 12 12 14 14 14 15 16 16 17 18 18 18 19 19 20 21 21 22 22 23 22 23 23 24 24 24 25 25 26 26 27 27 27 27 27 28
8 8 8 9 9 8 8 9 10 10 11 12 13 14 14 15 15 16 16 18 18 19 19 20 20 20 20 21 21 22 23 23 23 24 24 24 25 25 25 25 26 26 26 27 28 28 29 28 28
6 6 7 8 8 8 8 9 10 11 12 12 14 15 15 16 17 18 18 19 19 20 20 20 20 21 21 21 21 21 23 24 25 25 24 24 25 25 25 25 26 26 27 27 27 27 28 28 28
5 5 7 8 8 8 9 10 11 12 13 13 14 15 16 16 18 19 19 20 20 21 21 20 21 21 21 22 23 23 24 24 25 25 25 25 25 25 25 25 25 25 25 26 26 26 26 26 27
7 7 7 8 8 9 9 11 13 13 14 14 14 15 16 17 17 18 19 19 20 20 21 21 21 21 22 23 24 24 25 25 25 25 26 26 25 24 24 24 24 24 24 25 25 25 25 26 27
7 7 7 8 9 9 10 11 13 13 14 14 15 16 17 17 18 19 19 19 20 20 21 22 22 21 22 23 24 25 25 25 25 26 26 26 25 24 24 25 24 24 24 24 25 25 26 27 28
6 6 8 9 9 9 10 12 13 14 15 15 16 17 18 18 19 19 19 20 21 22 22 23 22 22 22 23 23 24 24 25 25 26 26 26 25 24 25 25 24 24 24 25 25 25 27 27 28
7 7 8 9 10 10 11 12 13 14 15 16 17 17 18 19 19 19 20 21 22 23 23 23 22 22 22 23 23 24 25 25 26 26 26 26 25 24 23 23 24 24 24 25 25 26 26 26 26
7 8 9 10 10 11 12 13 14 14 15 16 17 18 18 19 20 20 21 21 22 23 23 22 22 21 22 22 23 24 24 25 25 25 25 24 23 23 22 22 22 22 23 24 24 24 25 25 25
8 9 9 10 11 11 13 13 14 14 15 16 17 18 19 20 20 20 21 21 21 21 21 21 21 22 22 23 23 24 24 24 24 24 24 23 22 21 21 21 20 21 22 23 23 23 24 24 24
9 9 10 11 11 12 12 12 13 14 15 17 18 18 18 19 20 20 20 20 20 20 20 20 20 21 22 22 22 22 22 22 22 22 22 22 21 21 20 19 19 20 21 22 22 22 21 21 21
10 10 11 11 12 12 13 13 13 15 15 17 18 18 19 20 20 19 19 19 19 20 20 19 19 20 20 20 21 21 21 21 21 22 21 20 20 20 20 19 19 20 20 21 21 20 19 18 19
10 10 10 12 12 13 14 14 14 15 15 17 17 17 18 19 19 19 18 19 18 18 18 18 18 19 19 19 19 20 20 20 20 20 19 19 20 20 18 18 19 20 20 20 18 17 17 17 17
11 11 11 12 12 13 14 14 14 15 16 17 17 18 18 18 18 17 17 18 18 18 17 17 17 18 18 18 18 19 18 18 19 19 19 19 18 17 17 18 19 19 18 17 16 15 15 16 15
12 12 12 12 13 13 15 16 16 16 16 17 17 18 18 18 17 17 17 18 18 17 17 17 18 18 17 18 17 17 18 18 18 18 18 17 16 16 16 17 18 18 17 16 16 15 15 13 13
14 14 13 13 14 14 15 16 17 17 17 17 18 18 18 17 17 16 16 16 17 17 16 16 17 16 16 16 16 16 17 17 16 16 16 15 15 15 16 17 17 18 17 16 15 15 14 14 13
15 15 14 15 15 16 16 16 18 17 17 17 17 18 18 16 15 15 15 15 15 16 16 16 16 16 16 16 15 16 16 16 15 15 14 14 14 15 16 16 17 17 17 16 16 16 15 14 13
Wind_Direction
211 204 194 190 175 192 217 231 244 254 278 310 331 328 324 330 341 341 344 347 348 345 342 339 338 339 335 322 298 281 273 266 263 259 252 250 255 257 265 267 267 262 258 256 255 252 254 253 252
220 214 209 200 180 221 242 245 257 267 283 313 324 330 327 328 329 334 334 340 341 342 341 338 329 329 340 333 315 303 301 293 287 272 263 263 264 264 270 272 271 267 266 264 258 256 257 257 257
224 218 215 206 206 217 238 248 259 272 288 311 321 328 328 322 323 322 320 322 326 325 329 335 334 333 324 322 321 310 310 308 296 288 281 281 277 271 272 275 275 272 269 266 264 262 262 261 261
222 219 216 216 223 227 236 246 254 262 279 300 310 322 324 317 316 315 315 318 324 323 322 327 323 323 320 314 314 323 318 307 299 297 290 287 282 276 275 276 277 274 270 267 266 265 265 264 262
221 219 215 224 228 229 236 245 247 251 270 289 297 308 308 309 312 313 314 315 317 321 324 321 321 317 315 312 310 321 319 312 306 302 295 290 285 277 276 275 275 274 273 269 267 267 266 265 263
219 219 214 224 226 228 238 242 248 252 265 276 287 299 300 298 300 306 301 300 311 315 317 318 318 317 314 309 306 309 312 311 304 301 297 293 289 284 281 277 274 272 271 269 268 267 265 264 263
218 214 212 217 218 227 237 242 253 257 259 268 281 292 298 294 295 297 296 297 302 306 310 313 312 308 308 303 303 305 304 304 301 299 296 294 290 286 281 278 276 274 273 272 270 269 267 265 264
219 217 219 220 223 232 242 248 255 259 262 270 285 291 298 297 291 293 295 297 297 298 299 303 310 307 304 305 302 301 300 301 301 300 297 295 292 287 283 280 278 277 276 274 273 272 270 267 264
220 217 224 223 221 231 243 249 253 256 260 272 283 287 292 289 289 293 293 294 296 297 298 299 302 306 305 303 300 296 298 299 299 301 300 297 294 291 287 283 280 278 277 276 275 275 272 270 267
223 220 227 227 224 229 238 244 250 257 269 276 280 283 284 286 290 292 292 293 297 297 297 300 298 301 299 299 296 295 296 297 299 300 299 299 297 293 288 284 281 277 276 276 275 274 272 272 270
226 225 229 229 229 231 235 242 251 262 268 272 279 284 282 287 292 291 292 293 297 297 298 299 300 299 298 297 297 296 297 298 299 299 298 297 295 291 287 285 282 278 276 275 275 274 273 273 271
227 226 228 230 234 238 240 247 255 265 269 270 277 283 282 285 289 290 294 295 296 297 297 297 298 299 298 298 298 297 297 298 298 299 298 296 293 289 287 286 283 280 278 276 274 275 274 273 272
225 224 228 231 236 241 241 248 259 266 273 275 278 281 285 290 291 290 290 290 291 294 295 294 295 296 297 298 298 299 299 298 298 297 296 294 293 290 288 285 283 282 281 278 275 275 275 274 272
224 222 225 230 235 241 246 255 266 275 278 280 283 284 288 293 293 291 288 290 288 290 292 293 294 295 295 295 297 298 298 299 299 298 298 296 296 293 288 285 284 283 282 281 278 276 275 274 272
218 220 223 231 237 245 253 263 271 278 279 282 286 286 290 292 293 291 288 289 288 288 290 292 294 295 295 295 296 297 298 298 298 299 299 297 296 294 290 286 284 283 282 281 280 278 275 274 273
205 214 227 238 245 254 259 268 273 277 278 282 289 290 290 291 292 290 290 291 288 288 291 293 295 295 296 295 297 297 299 301 301 300 299 297 295 292 290 289 286 285 283 282 282 280 277 275 274
227 227 232 245 253 261 266 272 275 277 281 286 293 295 294 294 296 292 291 292 289 288 291 294 295 295 296 298 301 301 301 303 303 302 301 299 297 295 293 289 287 285 285 283 284 283 279 276 274
223 231 239 249 261 268 274 278 281 282 287 290 295 298 298 298 298 295 294 295 293 292 292 294 294 296 298 299 300 300 300 302 303 304 304 302 298 295 293 290 287 286 286 284 284 282 280 278 276
227 232 242 257 266 275 279 281 283 286 290 292 295 298 302 301 299 297 296 296 295 295 295 294 294 296 298 300 300 301 303 304 305 305 306 304 299 296 294 291 289 288 287 286 284 283 282 280 278
232 242 255 263 270 280 284 284 283 287 290 291 293 297 300 300 298 297 297 297 296 296 296 295 294 294 297 299 301 302 304 306 308 309 308 307 303 299 295 293 291 289 288 287 286 287 286 282 280
250 257 259 268 278 287 288 289 287 287 290 291 292 296 299 298 299 299 297 298 297 296 296 296 296 294 296 299 301 303 303 305 307 308 308 307 304 301 299 298 293 289 289 288 288 289 287 283 280
259 271 275 282 293 293 292 291 289 291 294 298 298 297 299 301 301 301 302 301 302 299 297 297 298 297 299 301 302 303 305 306 308 308 308 307 306 304 301 301 297 293 293 292 291 290 288 283 280
261 268 276 283 290 290 293 294 293 293 296 302 303 301 302 303 306 307 306 305 305 304 303 300 300 300 301 303 304 304 305 307 309 309 310 309 309 309 306 305 304 298 297 297 296 295 290 286 280
264 270 280 288 295 293 292 292 295 295 299 303 303 304 305 306 306 306 307 308 307 306 305 305 302 303 304 305 306 306 308 310 313 312 311 311 311 311 309 306 307 306 304 302 300 297 294 289 281
266 277 290 295 294 293 292 294 298 299 303 307 308 308 308 307 309 309 310 311 309 307 308 309 309 309 309 308 308 309 311 313 315 314 313 313 314 313 312 311 312 310 309 309 305 297 294 291 285
270 273 275 281 283 287 293 297 302 304 307 310 312 310 310 311 312 312 312 313 314 313 316 316 315 316 315 314 312 312 315 316 317 317 316 316 315 315 314 315 314 314 315 314 311 305 298 294 288
270 272 271 277 284 289 293 300 307 309 309 311 315 315 315 316 315 314 313 314 315 317 320 322 321 320 319 320 319 318 320 320 320 320 320 319 318 316 316 317 318 319 319 316 315 313 306 300 293
266 270 273 278 285 289 295 300 304 309 311 312 314 318 317 318 317 315 314 314 317 318 320 322 322 322 323 323 322 323 324 323 323 323 321 321 321 321 319 319 320 322 322 320 319 317 312 310 303
268 268 271 275 281 288 293 297 300 305 309 313 314 317 317 315 316 317 315 317 318 318 319 323 325 326 327 329 328 330 329 327 327 326 324 324 325 324 322 323 323 324 324 322 321 320 316 312 307
267 271 275 278 286 289 290 295 299 304 306 310 313 315 317 316 316 318 318 316 318 319 320 324 327 329 329 332 334 335 335 335 336 336 332 329 330 330 330 328 327 327 328 327 324 320 315 313 309
Height
5893 5894 5894 5896 5897 5899 5898 5897 5896 5895 5895 5895 5894 5893 5892 5892 5892 5893 5890 5887 5886 5885 5884 5883 5882 5881 5880 5880 5879 5879 5878 5878 5878 5877 5877 5877 5877 5877 5876 5876 5876 5876 5876 5876 5876 5876 5876 5876 5876
5892 5893 5894 5895 5897 5898 5897 5895 5895 5894 5894 5894 5893 5892 5891 5890 5890 5889 5887 5886 5885 5884 5883 5882 5881 5880 5879 5878 5878 5877 5877 5877 5876 5876 5876 5875 5875 5874 5874 5874 5874 5874 5874 5873 5873 5873 5873 5874 5874
5891 5891 5893 5894 5895 5896 5895 5894 5894 5893 5893 5892 5892 5891 5890 5889 5888 5887 5886 5885 5884 5883 5882 5881 5880 5879 5878 5877 5876 5876 5875 5875 5875 5874 5874 5873 5873 5872 5872 5872 5871 5871 5871 5871 5871 5871 5871 5871 5871
5889 5891 5892 5894 5894 5893 5893 5893 5892 5892 5892 5891 5890 5890 5889 5888 5887 5886 5885 5884 5883 5882 5881 5880 5879 5878 5877 5876 5875 5874 5874 5873 5873 5872 5872 5871 5871 5870 5869 5869 5868 5868 5868 5868 5867 5867 5867 5867 5867
5888 5889 5891 5892 5892 5891 5891 5891 5891 5891 5891 5890 5889 5888 5887 5886 5885 5884 5883 5882 5882 5881 5880 5879 5878 5877 5875 5874 5873 5873 5872 5872 5871 5870 5869 5869 5868 5867 5867 5866 5866 5865 5864 5864 5864 5864 5864 5864 5864
5887 5888 5890 5891 5890 5890 5889 5890 5890 5889 5889 5888 5888 5887 5886 5885 5883 5883 5882 5881 5880 5879 5878 5877 5876 5875 5874 5873 5872 5871 5870 5869 5868 5867 5866 5866 5865 5864 5863 5863 5862 5861 5861 5860 5860 5859 5859 5860 5860
5886 5887 5888 5888 5889 5888 5888 5888 5888 5888 5887 5887 5886 5885 5884 5883 5882 5881 5880 5879 5879 5878 5877 5876 5874 5873 5872 5871 5870 5869 5868 5867 5866 5865 5864 5862 5862 5861 5859 5859 5858 5858 5857 5856 5856 5855 5855 5855 5855
5883 5885 5886 5886 5887 5887 5886 5886 5886 5886 5886 5886 5885 5884 5882 5881 5880 5879 5878 5878 5877 5876 5875 5874 5872 5871 5870 5869 5868 5867 5865 5864 5863 5862 5860 5859 5858 5857 5856 5855 5854 5853 5853 5852 5851 5850 5850 5850 5850
5881 5884 5884 5884 5885 5885 5884 5884 5885 5884 5884 5884 5883 5882 5881 5880 5878 5878 5877 5876 5875 5874 5873 5871 5870 5869 5867 5866 5865 5864 5863 5861 5860 5858 5857 5856 5854 5853 5852 5850 5850 5849 5848 5847 5846 5846 5845 5845 5845
5879 5881 5881 5882 5882 5882 5882 5883 5883 5882 5882 5882 5881 5880 5879 5878 5877 5876 5875 5874 5873 5872 5870 5869 5868 5866 5865 5863 5862 5860 5859 5858 5856 5855 5853 5852 5850 5848 5847 5846 5845 5844 5843 5842 5841 5840 5840 5839 5839
5876 5877 5878 5878 5879 5880 5880 5880 5881 5880 5880 5880 5879 5878 5877 5876 5875 5874 5873 5872 5870 5869 5868 5866 5865 5863 5862 5860 5859 5857 5855 5854 5852 5851 5849 5847 5845 5844 5842 5841 5839 5838 5837 5836 5836 5835 5834 5834 5833
5873 5874 5875 5876 5876 5877 5878 5878 5879 5878 5878 5878 5877 5876 5875 5874 5873 5872 5871 5869 5868 5867 5865 5864 5862 5860 5858 5857 5855 5853 5851 5850 5848 5846 5844 5843 5841 5839 5837 5836 5834 5833 5831 5831 5830 5829 5829 5828 5827
5870 5872 5872 5873 5874 5875 5876 5876 5877 5876 5876 5875 5874 5873 5872 5871 5870 5869 5868 5866 5865 5864 5862 5860 5859 5857 5855 5853 5851 5849 5847 5845 5843 5841 5839 5837 5836 5834 5832 5830 5828 5827 5826 5825 5824 5823 5822 5821 5821
5869 5869 5870 5871 5873 5874 5874 5874 5875 5874 5874 5873 5872 5870 5869 5868 5867 5866 5865 5863 5862 5860 5859 5857 5855 5853 5851 5849 5847 5845 5842 5840 5838 5836 5834 5832 5830 5827 5825 5823 5822 5820 5819 5818 5817 5816 5815 5814 5814
5867 5868 5870 5870 5871 5872 5873 5873 5872 5872 5871 5870 5869 5868 5866 5865 5864 5862 5861 5860 5858 5857 5855 5853 5851 5849 5847 5844 5842 5840 5837 5835 5833 5831 5829 5826 5824 5822 5819 5817 5815 5813 5812 5811 5810 5809 5808 5807 5806
5866 5868 5870 5870 5870 5871 5873 5872 5871 5870 5869 5868 5866 5865 5863 5862 5860 5859 5857 5856 5854 5852 5850 5848 5846 5844 5842 5840 5837 5835 5833 5831 5828 5826 5823 5820 5818 5815 5813 5810 5808 5806 5805 5803 5802 5801 5800 5799 5799
5866 5868 5869 5869 5869 5869 5870 5869 5868 5867 5866 5865 5864 5862 5860 5858 5856 5854 5853 5851 5850 5848 5846 5844 5842 5839 5837 5835 5833 5830 5828 5826 5823 5820 5817 5814 5811 5808 5806 5803 5801 5799 5797 5796 5794 5793 5792 5791 5790
5867 5868 5868 5868 5868 5868 5867 5867 5866 5865 5864 5862 5861 5858 5856 5854 5852 5850 5848 5847 5845 5843 5842 5840 5837 5835 5833 5830 5828 5825 5823 5820 5817 5814 5811 5808 5805 5802 5799 5797 5794 5792 5790 5789 5787 5786 5784 5783 5783
5865 5866 5866 5866 5866 5866 5865 5864 5863 5862 5861 5859 5857 5855 5853 5851 5849 5846 5844 5842 5840 5839 5837 5834 5832 5830 5827 5825 5822 5820 5817 5814 5811 5808 5804 5801 5798 5795 5792 5789 5787 5785 5783 5781 5780 5778 5777 5776 5774
5863 5864 5865 5865 5864 5863 5863 5862 5861 5860 5858 5856 5854 5852 5850 5847 5845 5843 5840 5838 5836 5834 5831 5829 5827 5825 5822 5819 5817 5814 5811 5808 5805 5801 5798 5794 5791 5788 5785 5782 5780 5778 5776 5774 5772 5770 5769 5767 5766
5862 5863 5863 5862 5862 5861 5860 5860 5858 5857 5855 5853 5851 5849 5846 5844 5841 5838 5836 5833 5831 5829 5826 5824 5821 5819 5817 5814 5811 5808 5805 5802 5799 5795 5791 5788 5784 5781 5778 5775 5772 5770 5769 5767 5765 5763 5761 5759 5758
5861 5861 5860 5860 5860 5860 5859 5858 5856 5854 5852 5849 5847 5845 5843 5840 5837 5834 5832 5829 5826 5823 5820 5818 5815 5813 5811 5808 5805 5802 5800 5797 5793 5789 5785 5782 5778 5774 5771 5769 5766 5764 5762 5760 5757 5755 5753 5752 5751
5858 5859 5858 5858 5857 5857 5856 5855 5854 5851 5849 5846 5844 5841 5839 5836 5833 5830 5827 5824 5821 5818 5815 5812 5810 5808 5805 5803 5800 5797 5794 5791 5787 5784 5780 5776 5772 5769 5766 5763 5760 5758 5756 5753 5751 5749 5747 5745 5743
5856 5857 5856 5855 5855 5855 5854 5853 5851 5848 5846 5843 5841 5838 5835 5832 5829 5826 5823 5820 5817 5814 5811 5808 5805 5802 5800 5797 5795 5792 5789 5785 5782 5778 5775 5771 5768 5764 5761 5758 5756 5753 5750 5747 5744 5742 5740 5738 5736
5854 5855 5855 5855 5854 5853 5851 5849 5848 5845 5842 5840 5837 5834 5832 5829 5825 5822 5819 5816 5813 5810 5807 5804 5801 5798 5795 5793 5790 5787 5784 5780 5777 5773 5770 5766 5763 5760 5757 5754 5751 5748 5745 5742 5738 5736 5734 5732 5730
5851 5852 5853 5853 5852 5851 5847 5846 5845 5841 5839 5837 5834 5831 5828 5825 5822 5818 5815 5812 5809 5806 5803 5800 5797 5794 5791 5788 5785 5782 5779 5776 5772 5769 5765 5762 5759 5756 5753 5750 5747 5744 5740 5737 5733 5731 5729 5726 5725
5848 5848 5849 5848 5847 5846 5845 5843 5841 5838 5835 5833 5830 5827 5824 5821 5818 5815 5812 5809 5806 5803 5800 5797 5794 5791 5788 5785 5781 5778 5775 5772 5768 5765 5762 5758 5755 5752 5749 5746 5743 5740 5736 5733 5730 5727 5724 5722 5720
5845 5845 5845 5844 5844 5843 5842 5840 5838 5834 5832 5830 5827 5824 5821 5817 5814 5812 5809 5806 5803 5799 5796 5793 5790 5787 5784 5781 5778 5775 5772 5768 5765 5761 5758 5755 5752 5749 5746 5743 5740 5736 5733 5729 5726 5723 5720 5718 5716
5841 5841 5841 5841 5840 5840 5839 5839 5834 5831 5829 5826 5823 5820 5817 5814 5811 5809 5806 5803 5800 5797 5794 5791 5787 5784 5781 5778 5775 5772 5768 5765 5762 5758 5755 5752 5749 5746 5743 5740 5736 5733 5729 5726 5723 5719 5716 5714 5712
5837 5837 5837 5837 5836 5835 5834 5836 5829 5827 5824 5822 5819 5817 5814 5810 5808 5805 5803 5800 5797 5794 5792 5788 5785 5782 5779 5776 5773 5770 5766 5763 5760 5756 5753 5750 5747 5744 5740 5737 5733 5730 5726 5723 5719 5716 5713 5711 5708